Simultaneous Nadir Overpasses (SNOs) Predictions

Prediction of SNOs between FY3D and NOAA-19 Satellite Orbit:

Table of predicted SNOs for the next 14.0 days since TLE Epoch: 9/2/2023
Index Date (FY3D) Time (FY3D) Lat,Lon (FY3D) SZA (FY3D ) Date (NOAA-19) Time (NOAA-19) Lat,Lon (NOAA-19) SZA (NOAA-19 ) Distance(km) Time Diff (sec)
1 09/07/2023 17:51:11 -76.42, 85.08 109.53 09/07/2023 17:49:59 -76.41, 85.11 109.53 1.53 72
2 09/07/2023 18:41:57 76.41,-107.58 70.48 09/07/2023 18:40:52 76.42,-107.58 70.50 0.52 65
3 09/07/2023 19:32:43 -76.45, 59.60 109.47 09/07/2023 19:31:57 -76.45, 59.76 109.47 4.33 46
4 09/07/2023 20:23:29 76.44,-133.07 70.54 09/07/2023 20:22:51 76.41,-133.10 70.52 3.32 38
5 09/07/2023 21:14:14 -76.43, 34.28 109.46 09/07/2023 21:13:56 -76.44, 34.25 109.45 1.39 18
6 09/07/2023 22:05:00 76.42,-158.38 70.55 09/07/2023 22:04:49 76.45,-158.44 70.58 3.25 11
7 09/07/2023 22:55:46 -76.46, 8.80 109.41 09/07/2023 22:55:55 -76.44, 8.73 109.43 3.22 9
8 09/07/2023 23:46:32 76.45, 176.14 70.60 09/07/2023 23:46:48 76.44, 176.04 70.60 2.61 16
9 09/08/2023 00:37:18 -76.49, -16.68 109.35 09/08/2023 00:37:53 -76.47, -16.62 109.37 2.37 35
10 09/08/2023 01:28:04 76.48, 150.65 70.66 09/08/2023 01:28:46 76.48, 150.70 70.66 1.21 42
11 09/08/2023 02:18:49 -76.47, -42.00 109.34 09/08/2023 02:19:52 -76.47, -42.13 109.35 3.48 63
12 09/08/2023 03:09:36 76.51, 125.17 70.72 09/08/2023 03:10:45 76.48, 125.18 70.68 3.55 69



Historial Predications of SNOs between FY3D and NOAA-19
